Location: Newark
(7.0858°N, 171.3717°E)
Time: 20:19:54
(UTC+00:00)

Tiros 1 - Pass Details

Date: 28 November 2020
Orbit: 630 x 663 km, 48.4° (Epoch: 18 January)

Event Time Altitude Azimuth Distance (km) Brightness Sun altitude
Rises 13:40:33 0° 290° (WNW) 2,920 - -66.3°
Reaches altitude 10° 13:43:46 10° 267° (W) 2,007 - -65.7°
Maximum altitude 13:46:25 15° 232° (SW) 1,690 - -65.2°
Drops below altitude 10° 13:49:04 10° 197° (SSW) 2,002 - -64.7°
Sets 13:52:16 0° 173° (S) 2,907 - -64.0°
